Year,Month,Day,Hour,Minute,Value (Times are PST for temperature in C)
2015,01,20,09,10,5.40
2015,01,20,09,11,5.40
2015,01,20,09,12,5.40
2015,01,20,09,13,5.40
2015,01,20,09,14,5.40
2015,01,20,09,15,5.40
2015,01,20,09,16,5.40
2015,01,20,09,17,5.40
2015,01,20,09,18,5.40
2015,01,20,09,19,5.40
2015,01,20,09,20,5.60
2015,01,20,09,21,5.60
2015,01,20,09,22,5.60
2015,01,20,09,23,5.70
2015,01,20,09,24,5.70
2015,01,20,09,25,5.70
2015,01,20,09,26,5.70
2015,01,20,09,27,5.70
2015,01,20,09,28,5.70
2015,01,20,09,29,5.70
2015,01,20,09,30,5.70
2015,01,20,09,31,5.70
2015,01,20,09,32,5.70
2015,01,20,09,33,5.90
2015,01,20,09,34,5.90
2015,01,20,09,35,5.90
2015,01,20,09,36,6.00
2015,01,20,09,37,6.00
2015,01,20,09,38,6.00
2015,01,20,09,39,6.00
2015,01,20,09,40,6.00
2015,01,20,09,41,6.00
2015,01,20,09,42,6.00
2015,01,20,09,43,6.00
2015,01,20,09,44,6.00
2015,01,20,09,45,6.00
2015,01,20,09,46,6.10
2015,01,20,09,47,6.10
2015,01,20,09,48,6.10
2015,01,20,09,49,6.10
2015,01,20,09,50,6.20
2015,01,20,09,51,6.20
2015,01,20,09,52,6.20
2015,01,20,09,53,6.20
2015,01,20,09,54,6.20
2015,01,20,09,55,6.20
2015,01,20,09,56,6.20
2015,01,20,09,57,6.20
2015,01,20,09,58,6.20
2015,01,20,09,59,6.20
2015,01,20,10,00,6.20
2015,01,20,10,01,6.30
2015,01,20,10,02,6.30
2015,01,20,10,03,6.30
2015,01,20,10,04,6.30
2015,01,20,10,05,6.30
2015,01,20,10,06,6.30
2015,01,20,10,07,6.30
2015,01,20,10,08,6.30
2015,01,20,10,09,6.30
2015,01,20,10,10,6.30
2015,01,20,10,11,6.30
2015,01,20,10,12,6.30
2015,01,20,10,13,6.30
2015,01,20,10,14,6.40
2015,01,20,10,15,6.40
2015,01,20,10,16,6.40
2015,01,20,10,17,6.40
2015,01,20,10,18,6.40
2015,01,20,10,19,6.40
2015,01,20,10,20,6.40
2015,01,20,10,21,6.40
2015,01,20,10,22,6.40
2015,01,20,10,23,6.40
2015,01,20,10,24,6.40
2015,01,20,10,25,6.40
2015,01,20,10,26,6.50
2015,01,20,10,27,6.60
2015,01,20,10,28,6.60
2015,01,20,10,29,6.60
2015,01,20,10,30,6.50
2015,01,20,10,31,6.40
2015,01,20,10,32,6.40
2015,01,20,10,33,6.40
2015,01,20,10,34,6.40
2015,01,20,10,35,6.40
2015,01,20,10,36,6.40
2015,01,20,10,37,6.40
2015,01,20,10,38,6.40
2015,01,20,10,39,6.40
2015,01,20,10,40,6.40
2015,01,20,10,41,6.40
2015,01,20,10,42,6.40
2015,01,20,10,43,6.40
2015,01,20,10,44,6.40
2015,01,20,10,45,6.40
2015,01,20,10,46,6.30
2015,01,20,10,47,6.30
2015,01,20,10,48,6.30
2015,01,20,10,49,6.40
2015,01,20,10,50,6.40
2015,01,20,10,51,6.40
2015,01,20,10,52,6.40
2015,01,20,10,53,6.40
2015,01,20,10,54,6.40
2015,01,20,10,55,6.40
2015,01,20,10,56,6.40
2015,01,20,10,57,6.40
2015,01,20,10,58,6.40
2015,01,20,10,59,6.40
2015,01,20,11,00,6.40
2015,01,20,11,01,6.40
2015,01,20,11,02,6.40
2015,01,20,11,03,6.40
2015,01,20,11,04,6.40
2015,01,20,11,05,6.40
2015,01,20,11,06,6.40
2015,01,20,11,07,6.40
2015,01,20,11,08,6.50
2015,01,20,11,09,6.60
2015,01,20,11,10,6.60
2015,01,20,11,11,6.70
2015,01,20,11,12,6.70
2015,01,20,11,13,6.70
2015,01,20,11,14,6.70
2015,01,20,11,15,6.80
2015,01,20,11,16,6.80
2015,01,20,11,17,6.80
2015,01,20,11,18,6.80
2015,01,20,11,19,6.80
2015,01,20,11,20,6.80
2015,01,20,11,21,6.80
2015,01,20,11,22,6.80
2015,01,20,11,23,6.80
2015,01,20,11,24,6.80
2015,01,20,11,25,6.80
2015,01,20,11,26,6.80
2015,01,20,11,27,6.80
2015,01,20,11,28,6.90
2015,01,20,11,29,6.90
2015,01,20,11,30,6.90
2015,01,20,11,31,6.90
2015,01,20,11,32,7.00
2015,01,20,11,33,7.00
2015,01,20,11,34,7.00
2015,01,20,11,35,7.00
2015,01,20,11,36,7.00
2015,01,20,11,37,7.00
2015,01,20,11,38,7.00
2015,01,20,11,39,7.00
2015,01,20,11,40,7.00
2015,01,20,11,41,7.00
2015,01,20,11,42,7.00
2015,01,20,11,43,7.10
2015,01,20,11,44,7.10
2015,01,20,11,45,7.20
2015,01,20,11,46,7.20
2015,01,20,11,47,7.30
2015,01,20,11,48,7.30
2015,01,20,11,49,7.30
2015,01,20,11,50,7.30
2015,01,20,11,51,7.30
2015,01,20,11,52,7.40
2015,01,20,11,53,7.40
2015,01,20,11,54,7.40
2015,01,20,11,55,7.40
2015,01,20,11,56,7.50
2015,01,20,11,57,7.50
2015,01,20,11,58,7.50
2015,01,20,11,59,7.50
2015,01,20,12,00,7.50
2015,01,20,12,01,7.50
2015,01,20,12,02,7.50
2015,01,20,12,03,7.60
2015,01,20,12,04,7.60
2015,01,20,12,05,7.70
2015,01,20,12,06,7.70
2015,01,20,12,07,7.70
2015,01,20,12,08,7.70
2015,01,20,12,09,7.80
2015,01,20,12,10,7.80
2015,01,20,12,11,7.80
2015,01,20,12,12,7.80
2015,01,20,12,13,7.80
2015,01,20,12,14,7.80
2015,01,20,12,15,7.80
2015,01,20,12,16,7.90
2015,01,20,12,17,7.90
2015,01,20,12,18,7.90
2015,01,20,12,19,7.90
2015,01,20,12,20,7.90
2015,01,20,12,21,7.90
2015,01,20,12,22,7.90
2015,01,20,12,23,7.90
2015,01,20,12,24,7.90
2015,01,20,12,25,7.80
2015,01,20,12,26,7.80
2015,01,20,12,27,7.80
2015,01,20,12,28,7.80
2015,01,20,12,29,7.80
2015,01,20,12,30,7.90
2015,01,20,12,31,8.00
2015,01,20,12,32,8.00
2015,01,20,12,33,8.20
2015,01,20,12,34,8.20
2015,01,20,12,35,8.40
2015,01,20,12,36,8.40
2015,01,20,12,37,8.50
2015,01,20,12,38,8.60
2015,01,20,12,39,8.70
2015,01,20,12,40,8.70
2015,01,20,12,41,8.70
2015,01,20,12,42,8.70
2015,01,20,12,43,8.80
2015,01,20,12,44,8.80
2015,01,20,12,45,8.80
2015,01,20,12,46,8.90
2015,01,20,12,47,8.90
2015,01,20,12,48,9.00
2015,01,20,12,49,9.00
2015,01,20,12,50,9.10
2015,01,20,12,51,9.10
2015,01,20,12,52,9.00
2015,01,20,12,53,9.00
2015,01,20,12,54,9.00
2015,01,20,12,55,9.00
2015,01,20,12,56,8.90
2015,01,20,12,57,8.80
2015,01,20,12,58,8.70
2015,01,20,12,59,8.70
2015,01,20,13,00,8.60
2015,01,20,13,01,8.60
2015,01,20,13,02,8.60
2015,01,20,13,03,8.60
2015,01,20,13,04,8.60
2015,01,20,13,05,8.50
2015,01,20,13,06,8.50
2015,01,20,13,07,8.40
2015,01,20,13,08,8.40
2015,01,20,13,09,8.50
2015,01,20,13,10,8.50
2015,01,20,13,11,8.50
2015,01,20,13,12,8.50
2015,01,20,13,13,8.50
2015,01,20,13,14,8.40
2015,01,20,13,15,8.40
2015,01,20,13,16,8.40
2015,01,20,13,17,8.40
2015,01,20,13,18,8.40
2015,01,20,13,19,8.50
2015,01,20,13,20,8.60
2015,01,20,13,21,8.60
2015,01,20,13,22,8.60
2015,01,20,13,23,8.70
2015,01,20,13,24,8.70
2015,01,20,13,25,8.70
2015,01,20,13,26,8.80
2015,01,20,13,27,8.80
2015,01,20,13,28,8.90
2015,01,20,13,29,8.90
2015,01,20,13,30,8.90
2015,01,20,13,31,9.00
2015,01,20,13,32,9.00
2015,01,20,13,33,9.00
2015,01,20,13,34,9.10
2015,01,20,13,35,9.10
2015,01,20,13,36,9.10
2015,01,20,13,37,9.10
2015,01,20,13,38,9.10
2015,01,20,13,39,9.10
2015,01,20,13,40,9.10
2015,01,20,13,41,9.20
2015,01,20,13,42,9.20
2015,01,20,13,43,9.20
2015,01,20,13,44,9.20
2015,01,20,13,45,9.10
2015,01,20,13,46,9.10
2015,01,20,13,47,9.00
2015,01,20,13,48,8.90
2015,01,20,13,49,8.90
2015,01,20,13,50,8.90
2015,01,20,13,51,8.80
2015,01,20,13,52,8.80
2015,01,20,13,53,8.70
2015,01,20,13,54,8.70
2015,01,20,13,55,8.70
2015,01,20,13,56,8.70
2015,01,20,13,57,8.70
2015,01,20,13,58,8.70
2015,01,20,13,59,8.70
2015,01,20,14,00,8.70
2015,01,20,14,01,8.80
2015,01,20,14,02,8.80
2015,01,20,14,03,8.90
2015,01,20,14,04,8.80
2015,01,20,14,05,8.90
2015,01,20,14,06,8.80
2015,01,20,14,07,8.80
2015,01,20,14,08,8.90
2015,01,20,14,09,8.90
2015,01,20,14,10,8.90
2015,01,20,14,11,8.90
2015,01,20,14,12,8.80
2015,01,20,14,13,8.80
2015,01,20,14,14,8.80
2015,01,20,14,15,8.80
2015,01,20,14,16,8.70
2015,01,20,14,17,8.70
2015,01,20,14,18,8.70
2015,01,20,14,19,8.70
2015,01,20,14,20,8.70
2015,01,20,14,21,8.70
2015,01,20,14,22,8.60
2015,01,20,14,23,8.60
2015,01,20,14,24,8.50
2015,01,20,14,25,8.40
2015,01,20,14,26,8.40
2015,01,20,14,27,8.40
2015,01,20,14,28,8.30
2015,01,20,14,29,8.30
2015,01,20,14,30,8.30
2015,01,20,14,31,8.20
2015,01,20,14,32,8.20
2015,01,20,14,33,8.20
2015,01,20,14,34,8.20
2015,01,20,14,35,8.20
2015,01,20,14,36,8.20
2015,01,20,14,37,8.20
2015,01,20,14,38,8.20
2015,01,20,14,39,8.20
2015,01,20,14,40,8.20
2015,01,20,14,41,8.20
2015,01,20,14,42,8.20
2015,01,20,14,43,8.20
2015,01,20,14,44,8.20
2015,01,20,14,45,8.20
2015,01,20,14,46,8.20
2015,01,20,14,47,8.20
2015,01,20,14,48,8.20
2015,01,20,14,49,8.20
2015,01,20,14,50,8.20
2015,01,20,14,51,8.20
2015,01,20,14,52,8.20
2015,01,20,14,53,8.20
2015,01,20,14,54,8.20
2015,01,20,14,55,8.20
2015,01,20,14,56,8.20
2015,01,20,14,57,8.20
2015,01,20,14,58,8.10
2015,01,20,14,59,8.10
2015,01,20,15,00,8.10
2015,01,20,15,01,8.10
2015,01,20,15,02,8.10
2015,01,20,15,03,8.10
2015,01,20,15,04,8.00
2015,01,20,15,05,8.00
2015,01,20,15,06,8.00
2015,01,20,15,07,8.00
2015,01,20,15,08,8.00
2015,01,20,15,09,8.00
2015,01,20,15,10,8.00
2015,01,20,15,11,8.00
2015,01,20,15,12,8.00
2015,01,20,15,13,7.90
2015,01,20,15,14,7.90
2015,01,20,15,15,7.90
2015,01,20,15,16,7.90
2015,01,20,15,17,7.80
2015,01,20,15,18,7.80
2015,01,20,15,19,7.80
2015,01,20,15,20,7.80
2015,01,20,15,21,7.70
2015,01,20,15,22,7.70
2015,01,20,15,23,7.60
2015,01,20,15,24,7.60
2015,01,20,15,25,7.50
2015,01,20,15,26,7.50
2015,01,20,15,27,7.40
2015,01,20,15,28,7.40
2015,01,20,15,29,7.40
2015,01,20,15,30,7.30
2015,01,20,15,31,7.30
2015,01,20,15,32,7.30
2015,01,20,15,33,7.20
2015,01,20,15,34,7.20
2015,01,20,15,35,7.20
2015,01,20,15,36,7.20
2015,01,20,15,37,7.10
2015,01,20,15,38,7.10
2015,01,20,15,39,7.10
2015,01,20,15,40,7.10
2015,01,20,15,41,7.10
2015,01,20,15,42,7.10
2015,01,20,15,43,7.10
2015,01,20,15,44,7.10
2015,01,20,15,45,7.00
2015,01,20,15,46,7.00
2015,01,20,15,47,7.00
2015,01,20,15,48,7.00
2015,01,20,15,49,7.00
2015,01,20,15,50,7.00
2015,01,20,15,51,7.00
2015,01,20,15,52,6.90
2015,01,20,15,53,6.90
2015,01,20,15,54,6.90
2015,01,20,15,55,6.90
2015,01,20,15,56,6.90
2015,01,20,15,57,6.90
2015,01,20,15,58,6.80
2015,01,20,15,59,6.80
2015,01,20,16,00,6.80
2015,01,20,16,01,6.80
2015,01,20,16,02,6.80
2015,01,20,16,03,6.80
2015,01,20,16,04,6.80
2015,01,20,16,05,6.70
2015,01,20,16,06,6.70
2015,01,20,16,07,6.60
2015,01,20,16,08,6.60
2015,01,20,16,09,6.60
2015,01,20,16,10,6.60
2015,01,20,16,11,6.60
2015,01,20,16,12,6.60
2015,01,20,16,13,6.60
2015,01,20,16,14,6.60
2015,01,20,16,15,6.50
2015,01,20,16,16,6.40
2015,01,20,16,17,6.40
2015,01,20,16,18,6.40
2015,01,20,16,19,6.40
2015,01,20,16,20,6.40
2015,01,20,16,21,6.40
2015,01,20,16,22,6.40
2015,01,20,16,23,6.40
2015,01,20,16,24,6.40
2015,01,20,16,25,6.40
2015,01,20,16,26,6.40
2015,01,20,16,27,6.30
2015,01,20,16,28,6.30
2015,01,20,16,29,6.30
2015,01,20,16,30,6.30
2015,01,20,16,31,6.20
2015,01,20,16,32,6.20
2015,01,20,16,33,6.20
2015,01,20,16,34,6.20
2015,01,20,16,35,6.20
2015,01,20,16,36,6.20
2015,01,20,16,37,6.20
2015,01,20,16,38,6.20
2015,01,20,16,39,6.20
2015,01,20,16,40,6.20
2015,01,20,16,41,6.20
2015,01,20,16,42,6.20
